ACA7042 KTPA-KBUF

Flight info

Callsign ACA7042
Flight time 2h 25m
Altitude 37000
Route BAYPO2 CAMJO Q99 HEPAR IRQ BURGG HVQ Q145 FOXEE DKK
Aircraft A320/M-SDE3FGHIRWY/LB1

Departure

Time 2026-05-05 16:01
Airport Tampa International Airport (KTPA)

Arrival

Time 2026-05-05 18:26
Airport Buffalo Niagara International Airport (KBUF)
Time Latitude Longitude Altitude Speed Heading
2026-05-05 15:37 27.96757 -82.52597 40 ft 0 kts 45°
2026-05-05 15:50 27.96755 -82.52600 40 ft 3 kts 47°
2026-05-05 15:51 27.96744 -82.52620 38 ft 0 kts 108°
2026-05-05 15:54 27.96743 -82.52617 40 ft 3 kts 108°
2026-05-05 15:55 27.96716 -82.52615 40 ft 7 kts 210°
2026-05-05 15:55 27.96681 -82.52647 39 ft 6 kts 220°
2026-05-05 15:55 27.96655 -82.52673 41 ft 4 kts 220°
2026-05-05 15:55 27.96629 -82.52692 42 ft 10 kts 203°
2026-05-05 15:56 27.96588 -82.52708 42 ft 3 kts 248°
2026-05-05 15:56 27.96594 -82.52727 42 ft 2 kts 285°
2026-05-05 15:56 27.96595 -82.52735 42 ft 1 kts 279°
2026-05-05 15:56 27.96586 -82.52761 40 ft 4 kts 225°
2026-05-05 15:57 27.96564 -82.52771 42 ft 3 kts 190°
2026-05-05 15:57 27.96545 -82.52773 42 ft 2 kts 183°
2026-05-05 15:57 27.96523 -82.52774 42 ft 7 kts 182°
2026-05-05 15:57 27.96454 -82.52788 42 ft 5 kts 221°
2026-05-05 15:58 27.96449 -82.52796 42 ft 0 kts 232°
2026-05-05 15:58 27.96448 -82.52799 42 ft 0 kts 244°
2026-05-05 15:58 27.96447 -82.52805 42 ft 1 kts 261°
2026-05-05 15:59 27.96452 -82.52841 43 ft 8 kts 278°
2026-05-05 15:59 27.96503 -82.52893 42 ft 14 kts 349°
2026-05-05 15:59 27.96566 -82.52890 41 ft 0 kts
2026-05-05 16:00 27.96591 -82.52889 41 ft 25 kts
2026-05-05 16:00 27.97043 -82.52878 38 ft 103 kts
2026-05-05 16:00 27.97973 -82.52850 47 ft 159 kts
2026-05-05 16:01 27.99053 -82.52888 744 ft 153 kts
2026-05-05 16:01 28.00133 -82.52916 1381 ft 156 kts
2026-05-05 16:01 28.01256 -82.52923 1920 ft 170 kts
2026-05-05 16:01 28.02516 -82.52923 2319 ft 193 kts
2026-05-05 16:02 28.03945 -82.52921 2709 ft 216 kts
2026-05-05 16:02 28.05497 -82.52917 3205 ft 237 kts
2026-05-05 16:02 28.07203 -82.53112 3805 ft 259 kts 347°
2026-05-05 16:02 28.08999 -82.53717 4541 ft 275 kts 343°
2026-05-05 16:03 28.10863 -82.54378 5483 ft 281 kts 342°
2026-05-05 16:03 28.12712 -82.55044 6405 ft 283 kts 340°
2026-05-05 16:03 28.14602 -82.55727 7430 ft 284 kts 340°
2026-05-05 16:03 28.16491 -82.56407 8457 ft 285 kts 340°
2026-05-05 16:04 28.18397 -82.57087 9574 ft 287 kts 341°
2026-05-05 16:04 28.20327 -82.57591 10540 ft 291 kts 352°
2026-05-05 16:04 28.22401 -82.57695 11100 ft 309 kts 356°
2026-05-05 16:04 28.24635 -82.57765 11392 ft 332 kts 356°
2026-05-05 16:05 28.27036 -82.57835 11629 ft 356 kts 356°
2026-05-05 16:05 28.29574 -82.57906 12127 ft 369 kts 356°
2026-05-05 16:05 28.32129 -82.57972 12790 ft 374 kts 355°
2026-05-05 16:05 28.34750 -82.58041 13503 ft 378 kts 355°
2026-05-05 16:06 28.37394 -82.58113 14162 ft 381 kts 355°
2026-05-05 16:06 28.40064 -82.58182 14806 ft 384 kts 354°
2026-05-05 16:06 28.42750 -82.58248 15472 ft 386 kts 354°
2026-05-05 16:06 28.45443 -82.58314 16135 ft 387 kts 354°
2026-05-05 16:07 28.48123 -82.58379 16808 ft 389 kts 354°
2026-05-05 16:07 28.50847 -82.58447 17473 ft 392 kts 354°
2026-05-05 16:07 28.53586 -82.58514 18129 ft 394 kts 354°
2026-05-05 16:07 28.56338 -82.58580 18709 ft 396 kts 354°
2026-05-05 16:08 28.59072 -82.58647 19238 ft 398 kts 354°
2026-05-05 16:08 28.61858 -82.58717 19763 ft 400 kts 353°
2026-05-05 16:08 28.64633 -82.58790 20264 ft 403 kts 353°
2026-05-05 16:08 28.67438 -82.58916 20773 ft 402 kts 349°
2026-05-05 16:09 28.70225 -82.59301 21263 ft 403 kts 347°
2026-05-05 16:09 28.73019 -82.59694 21740 ft 405 kts 347°
2026-05-05 16:09 28.75827 -82.60087 22232 ft 407 kts 347°
2026-05-05 16:09 28.78648 -82.60479 22672 ft 409 kts 347°
2026-05-05 16:10 28.81457 -82.60867 23103 ft 411 kts 347°
2026-05-05 16:10 28.84315 -82.61262 23546 ft 413 kts 347°
2026-05-05 16:10 28.87185 -82.61661 23900 ft 415 kts 347°
2026-05-05 16:10 28.90067 -82.62062 24244 ft 417 kts 347°
2026-05-05 16:11 28.92951 -82.62467 24598 ft 418 kts 347°
2026-05-05 16:11 29.01620 -82.63679 25624 ft 421 kts 347°
2026-05-05 16:12 29.04529 -82.64085 25960 ft 422 kts 347°
2026-05-05 16:12 29.10354 -82.64896 26599 ft 424 kts 347°
2026-05-05 16:13 29.19191 -82.66142 27488 ft 428 kts 347°
2026-05-05 16:13 29.22161 -82.66559 27757 ft 429 kts 347°
2026-05-05 16:13 29.25128 -82.66976 28010 ft 430 kts 347°
2026-05-05 16:14 29.31060 -82.67810 28492 ft 431 kts 347°
2026-05-05 16:14 29.37005 -82.68646 29103 ft 430 kts 347°
2026-05-05 16:15 29.42967 -82.69327 29685 ft 434 kts 353°
2026-05-05 16:15 29.48964 -82.69281 30301 ft 432 kts 354°
2026-05-05 16:16 29.54955 -82.69228 30893 ft 428 kts 353°
2026-05-05 16:16 29.60888 -82.69186 31525 ft 423 kts 353°
2026-05-05 16:17 29.66721 -82.69162 32173 ft 418 kts 353°
2026-05-05 16:17 29.69639 -82.69151 32496 ft 416 kts 353°
2026-05-05 16:18 29.75365 -82.69112 33163 ft 411 kts 352°
2026-05-05 16:18 29.78224 -82.69088 33520 ft 408 kts 352°
2026-05-05 16:18 29.83855 -82.69049 34203 ft 402 kts 352°
2026-05-05 16:19 29.86662 -82.69034 34508 ft 400 kts 352°
2026-05-05 16:19 29.89410 -82.69020 34782 ft 398 kts 352°
2026-05-05 16:19 29.94950 -82.68985 35389 ft 394 kts 351°
2026-05-05 16:20 30.00390 -82.68942 35910 ft 391 kts 351°
2026-05-05 16:20 30.05820 -82.68911 36363 ft 388 kts 351°
2026-05-05 16:21 30.11198 -82.68885 36791 ft 387 kts 351°
2026-05-05 16:22 30.19236 -82.68841 37129 ft 385 kts 351°
2026-05-05 16:23 30.29896 -82.68769 37141 ft 382 kts 351°
2026-05-05 16:23 30.37887 -82.68721 37155 ft 382 kts 351°
2026-05-05 16:24 30.43181 -82.68692 37167 ft 382 kts 351°
2026-05-05 16:25 30.51183 -82.68539 37167 ft 390 kts 356°
2026-05-05 16:25 30.59273 -82.66860 37168 ft 395 kts 359°
2026-05-05 16:26 30.70106 -82.64546 37167 ft 395 kts 359°
2026-05-05 16:27 30.75475 -82.63394 37174 ft 395 kts 359°
2026-05-05 16:27 30.80900 -82.62235 37147 ft 396 kts 359°
2026-05-05 16:28 30.86308 -82.61089 37138 ft 397 kts 359°
2026-05-05 16:28 30.91762 -82.59922 37131 ft 398 kts 359°
2026-05-05 16:29 30.97195 -82.58756 37123 ft 398 kts 359°
2026-05-05 16:29 31.02618 -82.57588 37124 ft 399 kts 359°
2026-05-05 16:30 31.08093 -82.56408 37158 ft 399 kts 359°
2026-05-05 16:30 31.12636 -82.55565 37152 ft 395 kts 356°
2026-05-05 16:31 31.18976 -82.54680 37146 ft 393 kts 355°
2026-05-05 16:31 31.23502 -82.54064 37139 ft 394 kts 356°
2026-05-05 16:32 31.28963 -82.53283 37138 ft 395 kts 356°
2026-05-05 16:32 31.34396 -82.52464 37146 ft 395 kts 356°
2026-05-05 16:33 31.39853 -82.51633 37135 ft 394 kts 356°
2026-05-05 16:33 31.45276 -82.50815 37137 ft 394 kts 356°
2026-05-05 16:34 31.50733 -82.50002 37136 ft 394 kts 356°
2026-05-05 16:34 31.56148 -82.49189 37123 ft 394 kts 356°
2026-05-05 16:35 31.61610 -82.48367 37135 ft 394 kts 356°
2026-05-05 16:35 31.67022 -82.47552 37126 ft 393 kts 356°
2026-05-05 16:36 31.72455 -82.46738 37124 ft 393 kts 356°
2026-05-05 16:36 31.77895 -82.45920 37117 ft 393 kts 356°
2026-05-05 16:37 31.83306 -82.45098 37117 ft 393 kts 356°
2026-05-05 16:37 31.88706 -82.44281 37126 ft 392 kts 356°
2026-05-05 16:38 31.94130 -82.43458 37120 ft 392 kts 356°
2026-05-05 16:38 31.99555 -82.42648 37126 ft 392 kts 356°
2026-05-05 16:39 32.04944 -82.41831 37129 ft 392 kts 356°
2026-05-05 16:39 32.10371 -82.41008 37132 ft 392 kts 356°
2026-05-05 16:40 32.15808 -82.40186 37161 ft 393 kts 356°
2026-05-05 16:40 32.21210 -82.39364 37161 ft 393 kts 356°
2026-05-05 16:41 32.26613 -82.38535 37150 ft 393 kts 356°
2026-05-05 16:41 32.32048 -82.37703 37142 ft 393 kts 356°
2026-05-05 16:42 32.37492 -82.36870 37122 ft 393 kts 356°
2026-05-05 16:42 32.42887 -82.36042 37121 ft 392 kts 356°
2026-05-05 16:43 32.48312 -82.35214 37112 ft 392 kts 356°
2026-05-05 16:43 32.53709 -82.34396 37107 ft 393 kts 356°
2026-05-05 16:44 32.59142 -82.33570 37108 ft 393 kts 356°
2026-05-05 16:44 32.64547 -82.32734 37109 ft 393 kts 356°
2026-05-05 16:45 32.69984 -82.31893 37131 ft 393 kts 356°
2026-05-05 16:45 32.75395 -82.31060 37122 ft 394 kts 356°
2026-05-05 16:46 32.80849 -82.30219 37116 ft 394 kts 356°
2026-05-05 16:46 32.86267 -82.29385 37115 ft 394 kts 356°
2026-05-05 16:47 32.91730 -82.28547 37112 ft 394 kts 356°
2026-05-05 16:47 32.97140 -82.27709 37111 ft 393 kts 356°
2026-05-05 16:48 33.02580 -82.26867 37109 ft 393 kts 356°
2026-05-05 16:48 33.07986 -82.26032 37108 ft 393 kts 356°
2026-05-05 16:49 33.13440 -82.25177 37103 ft 394 kts 356°
2026-05-05 16:49 33.18845 -82.24325 37107 ft 393 kts 356°
2026-05-05 16:50 33.24289 -82.23475 37114 ft 393 kts 356°
2026-05-05 16:50 33.29694 -82.22635 37124 ft 393 kts 356°
2026-05-05 16:51 33.35141 -82.21788 37126 ft 393 kts 356°
2026-05-05 16:51 33.40557 -82.20946 37129 ft 393 kts 356°
2026-05-05 16:52 33.46001 -82.20098 37152 ft 394 kts 356°
2026-05-05 16:52 33.51408 -82.19249 37144 ft 394 kts 356°
2026-05-05 16:53 33.56854 -82.18393 37135 ft 394 kts 356°
2026-05-05 16:53 33.62313 -82.17530 37128 ft 394 kts 356°
2026-05-05 16:54 33.67729 -82.16678 37121 ft 394 kts 356°
2026-05-05 16:54 33.73190 -82.15813 37148 ft 395 kts 357°
2026-05-05 16:55 33.78613 -82.14867 37121 ft 396 kts 358°
2026-05-05 16:55 33.84084 -82.13882 37112 ft 396 kts 358°
2026-05-05 16:56 33.89508 -82.12915 37112 ft 396 kts 358°
2026-05-05 16:56 33.94968 -82.11956 37118 ft 396 kts 357°
2026-05-05 16:57 34.00441 -82.11001 37151 ft 396 kts 358°
2026-05-05 16:57 34.05877 -82.10046 37150 ft 397 kts 358°
2026-05-05 16:58 34.11351 -82.09081 37151 ft 397 kts 358°
2026-05-05 16:58 34.16801 -82.08126 37154 ft 397 kts 358°
2026-05-05 16:59 34.22275 -82.07156 37191 ft 397 kts 358°
2026-05-05 16:59 34.27728 -82.06187 37160 ft 396 kts 358°
2026-05-05 17:00 34.33204 -82.05219 37142 ft 396 kts 358°
2026-05-05 17:00 34.38630 -82.04259 37136 ft 397 kts 358°
2026-05-05 17:01 34.44116 -82.03283 37135 ft 397 kts 358°
2026-05-05 17:01 34.49592 -82.02310 37149 ft 397 kts 358°
2026-05-05 17:02 34.55059 -82.01344 37132 ft 397 kts 358°
2026-05-05 17:02 34.60526 -82.00363 37123 ft 397 kts 358°
2026-05-05 17:03 34.65969 -81.99392 37114 ft 397 kts 358°
2026-05-05 17:03 34.71421 -81.98420 37101 ft 397 kts 358°
2026-05-05 17:04 34.76896 -81.97443 37130 ft 397 kts 358°
2026-05-05 17:04 34.82361 -81.96465 37121 ft 398 kts 358°
2026-05-05 17:05 34.87847 -81.95473 37113 ft 398 kts 358°
2026-05-05 17:05 34.93297 -81.94488 37109 ft 398 kts 358°
2026-05-05 17:06 34.98800 -81.93502 37135 ft 399 kts 358°
2026-05-05 17:06 35.04285 -81.92637 37120 ft 391 kts 352°
2026-05-05 17:07 35.09707 -81.92403 37105 ft 391 kts 352°
2026-05-05 17:07 35.15138 -81.92159 37093 ft 391 kts 352°
2026-05-05 17:08 35.20602 -81.91911 37086 ft 391 kts 352°
2026-05-05 17:08 35.26033 -81.91664 37102 ft 392 kts 352°
2026-05-05 17:09 35.31490 -81.91409 37107 ft 392 kts 352°
2026-05-05 17:09 35.36929 -81.91151 37110 ft 393 kts 353°
2026-05-05 17:10 35.42402 -81.90898 37108 ft 393 kts 352°
2026-05-05 17:10 35.47875 -81.90656 37108 ft 393 kts 352°
2026-05-05 17:11 35.53353 -81.90409 37125 ft 394 kts 353°
2026-05-05 17:11 35.58825 -81.90154 37104 ft 394 kts 353°
2026-05-05 17:12 35.64279 -81.89897 37086 ft 393 kts 352°
2026-05-05 17:12 35.69772 -81.89651 37079 ft 394 kts 352°
2026-05-05 17:13 35.75224 -81.89403 37085 ft 394 kts 352°
2026-05-05 17:13 35.80716 -81.89150 37087 ft 394 kts 352°
2026-05-05 17:14 35.86193 -81.88889 37040 ft 394 kts 352°
2026-05-05 17:14 35.91655 -81.88635 37039 ft 394 kts 352°
2026-05-05 17:15 35.97136 -81.88388 37049 ft 393 kts 352°
2026-05-05 17:15 36.02605 -81.88135 37058 ft 394 kts 353°
2026-05-05 17:16 36.08076 -81.87873 37045 ft 394 kts 353°
2026-05-05 17:16 36.13575 -81.87615 37038 ft 394 kts 352°
2026-05-05 17:17 36.19055 -81.87360 37030 ft 394 kts 353°
2026-05-05 17:17 36.23621 -81.87147 37062 ft 395 kts 352°
2026-05-05 17:18 36.29114 -81.86895 37046 ft 395 kts 352°
2026-05-05 17:18 36.34610 -81.86638 37041 ft 395 kts 352°
2026-05-05 17:19 36.40073 -81.86384 37030 ft 395 kts 352°
2026-05-05 17:19 36.45581 -81.86124 37029 ft 395 kts 352°
2026-05-05 17:20 36.51069 -81.85864 37044 ft 395 kts 352°
2026-05-05 17:20 36.56576 -81.85601 37076 ft 396 kts 352°
2026-05-05 17:21 36.62098 -81.85338 37064 ft 396 kts 352°
2026-05-05 17:22 36.70340 -81.84959 37064 ft 396 kts 352°
2026-05-05 17:22 36.75846 -81.84694 37074 ft 396 kts 352°
2026-05-05 17:23 36.81363 -81.84431 37057 ft 396 kts 352°
2026-05-05 17:23 36.86894 -81.84174 37069 ft 396 kts 352°
2026-05-05 17:24 36.92400 -81.83917 37082 ft 397 kts 352°
2026-05-05 17:24 36.97901 -81.83648 37118 ft 397 kts 352°
2026-05-05 17:25 37.03430 -81.83378 37101 ft 397 kts 352°
2026-05-05 17:25 37.08930 -81.83120 37093 ft 398 kts 352°
2026-05-05 17:26 37.14487 -81.82863 37089 ft 398 kts 352°
2026-05-05 17:26 37.20031 -81.82599 37101 ft 399 kts 352°
2026-05-05 17:27 37.25571 -81.82330 37060 ft 400 kts 352°
2026-05-05 17:27 37.31148 -81.82056 36987 ft 400 kts 352°
2026-05-05 17:28 37.36730 -81.81780 36983 ft 401 kts 352°
2026-05-05 17:28 37.42288 -81.81511 36981 ft 401 kts 352°
2026-05-05 17:29 37.47869 -81.81245 36988 ft 402 kts 351°
2026-05-05 17:29 37.53489 -81.80973 36977 ft 403 kts 352°
2026-05-05 17:30 37.59106 -81.80701 36973 ft 405 kts 352°
2026-05-05 17:30 37.64752 -81.80430 36981 ft 405 kts 352°
2026-05-05 17:31 37.70378 -81.80157 36998 ft 406 kts 351°
2026-05-05 17:31 37.76044 -81.79884 36982 ft 408 kts 351°
2026-05-05 17:32 37.81691 -81.79611 36960 ft 408 kts 351°
2026-05-05 17:32 37.87365 -81.79335 36961 ft 409 kts 351°
2026-05-05 17:33 37.93071 -81.79058 36981 ft 410 kts 351°
2026-05-05 17:33 37.98762 -81.78786 36973 ft 411 kts 351°
2026-05-05 17:34 38.04499 -81.78500 36957 ft 412 kts 352°
2026-05-05 17:34 38.10216 -81.78215 36954 ft 412 kts 352°
2026-05-05 17:35 38.15934 -81.77935 36958 ft 411 kts 352°
2026-05-05 17:35 38.21672 -81.77649 36960 ft 412 kts 352°
2026-05-05 17:36 38.27384 -81.77365 36966 ft 412 kts 352°
2026-05-05 17:36 38.33116 -81.77065 36969 ft 414 kts 354°
2026-05-05 17:36 38.36018 -81.76480 36967 ft 429 kts
2026-05-05 17:37 38.38861 -81.75315 36988 ft 437 kts
2026-05-05 17:37 38.44648 -81.72765 36964 ft 439 kts
2026-05-05 17:38 38.50418 -81.70214 36955 ft 439 kts
2026-05-05 17:38 38.56187 -81.67670 36946 ft 440 kts
2026-05-05 17:39 38.61969 -81.65124 36951 ft 441 kts
2026-05-05 17:39 38.67786 -81.62553 36926 ft 441 kts
2026-05-05 17:40 38.73580 -81.59989 36922 ft 442 kts
2026-05-05 17:40 38.79400 -81.57408 36920 ft 442 kts
2026-05-05 17:41 38.85177 -81.54841 36939 ft 442 kts
2026-05-05 17:41 38.91008 -81.52254 36918 ft 443 kts
2026-05-05 17:42 38.96820 -81.49658 36911 ft 444 kts
2026-05-05 17:42 39.02671 -81.47041 36905 ft 444 kts
2026-05-05 17:43 39.08494 -81.44438 36921 ft 444 kts
2026-05-05 17:43 39.14344 -81.41817 36914 ft 445 kts
2026-05-05 17:44 39.20171 -81.39200 36909 ft 445 kts
2026-05-05 17:44 39.26046 -81.36562 36953 ft 446 kts
2026-05-05 17:45 39.31892 -81.33927 36941 ft 447 kts
2026-05-05 17:45 39.37753 -81.31277 36893 ft 447 kts
2026-05-05 17:46 39.43653 -81.28612 36889 ft 447 kts
2026-05-05 17:46 39.49510 -81.25971 36905 ft 447 kts
2026-05-05 17:47 39.55392 -81.23311 36897 ft 447 kts
2026-05-05 17:47 39.61274 -81.20716 36888 ft 446 kts
2026-05-05 17:48 39.67135 -81.18162 36875 ft 446 kts
2026-05-05 17:48 39.73027 -81.15585 36878 ft 446 kts
2026-05-05 17:49 39.78884 -81.12995 36868 ft 446 kts
2026-05-05 17:49 39.84741 -81.10406 36863 ft 446 kts
2026-05-05 17:50 39.90634 -81.07796 36860 ft 447 kts
2026-05-05 17:50 39.96516 -81.05183 36868 ft 447 kts
2026-05-05 17:51 40.02420 -81.02562 36863 ft 447 kts
2026-05-05 17:51 40.08328 -80.99935 36867 ft 448 kts
2026-05-05 17:52 40.14214 -80.97322 36903 ft 448 kts
2026-05-05 17:52 40.20134 -80.94675 36881 ft 449 kts
2026-05-05 17:53 40.26028 -80.92029 36866 ft 450 kts
2026-05-05 17:53 40.31965 -80.89365 36852 ft 450 kts
2026-05-05 17:54 40.37872 -80.86706 36860 ft 450 kts
2026-05-05 17:54 40.43806 -80.84033 36849 ft 449 kts
2026-05-05 17:55 40.49696 -80.81375 36847 ft 449 kts
2026-05-05 17:55 40.55596 -80.78715 36866 ft 449 kts
2026-05-05 17:56 40.61528 -80.76028 36856 ft 450 kts
2026-05-05 17:56 40.67463 -80.73341 36850 ft 451 kts
2026-05-05 17:57 40.73375 -80.70653 36855 ft 451 kts
2026-05-05 17:57 40.79316 -80.67946 36877 ft 451 kts
2026-05-05 17:58 40.85234 -80.65243 36858 ft 452 kts
2026-05-05 17:58 40.91201 -80.62506 36847 ft 452 kts
2026-05-05 17:59 40.97123 -80.59798 36875 ft 452 kts
2026-05-05 17:59 41.03100 -80.57067 36856 ft 453 kts
2026-05-05 18:00 41.09041 -80.54335 36847 ft 454 kts
2026-05-05 18:00 41.15023 -80.51574 36848 ft 455 kts
2026-05-05 18:01 41.20890 -80.48169 36869 ft 473 kts 23°
2026-05-05 18:01 41.26310 -80.43179 36849 ft 478 kts 25°
2026-05-05 18:02 41.31805 -80.38109 36835 ft 478 kts 25°
2026-05-05 18:02 41.37290 -80.33066 36839 ft 479 kts 25°
2026-05-05 18:03 41.42761 -80.28012 36835 ft 480 kts 25°
2026-05-05 18:03 41.48227 -80.22941 36819 ft 481 kts 25°
2026-05-05 18:04 41.52803 -80.18677 36834 ft 481 kts 26°
2026-05-05 18:04 41.58267 -80.13576 36870 ft 481 kts 26°
2026-05-05 18:05 41.63786 -80.08427 36844 ft 482 kts 26°
2026-05-05 18:05 41.69304 -80.03277 36830 ft 483 kts 26°
2026-05-05 18:06 41.74789 -79.98142 36822 ft 483 kts 26°
2026-05-05 18:06 41.80282 -79.92972 36811 ft 484 kts 26°
2026-05-05 18:06 41.83022 -79.90391 36471 ft 484 kts 26°
2026-05-05 18:07 41.85794 -79.87781 35962 ft 487 kts 26°
2026-05-05 18:07 41.88570 -79.85178 34944 ft 494 kts 26°
2026-05-05 18:07 41.91361 -79.82545 34559 ft 484 kts 26°
2026-05-05 18:07 41.94096 -79.79944 33993 ft 475 kts 26°
2026-05-05 18:08 41.96748 -79.77413 33035 ft 469 kts 26°
2026-05-05 18:08 41.99411 -79.74877 32032 ft 464 kts 26°
2026-05-05 18:08 42.02040 -79.72378 31106 ft 459 kts 26°
2026-05-05 18:08 42.04635 -79.69915 30237 ft 453 kts 27°
2026-05-05 18:09 42.07181 -79.67499 29313 ft 447 kts 27°
2026-05-05 18:09 42.09718 -79.65093 28385 ft 441 kts 27°
2026-05-05 18:09 42.12201 -79.62732 27515 ft 434 kts 27°
2026-05-05 18:09 42.14657 -79.60393 26700 ft 427 kts 28°
2026-05-05 18:10 42.17045 -79.58120 25898 ft 421 kts 28°
2026-05-05 18:10 42.19432 -79.55847 24918 ft 420 kts 29°
2026-05-05 18:10 42.21801 -79.53590 23963 ft 419 kts 29°
2026-05-05 18:10 42.24171 -79.51327 23067 ft 415 kts 30°
2026-05-05 18:11 42.26527 -79.49075 22118 ft 410 kts 30°
2026-05-05 18:11 42.28854 -79.46846 21214 ft 406 kts 30°
2026-05-05 18:11 42.31140 -79.44649 20342 ft 401 kts 30°
2026-05-05 18:11 42.33407 -79.42468 19499 ft 397 kts 31°
2026-05-05 18:12 42.35622 -79.40336 18692 ft 393 kts 31°
2026-05-05 18:12 42.37847 -79.38195 17875 ft 390 kts 31°
2026-05-05 18:12 42.40051 -79.36076 16993 ft 386 kts 31°
2026-05-05 18:12 42.42238 -79.33971 16146 ft 383 kts 31°
2026-05-05 18:13 42.44377 -79.31908 15358 ft 379 kts 31°
2026-05-05 18:13 42.46530 -79.29831 14574 ft 376 kts 31°
2026-05-05 18:13 42.48617 -79.27745 13810 ft 375 kts 36°
2026-05-05 18:13 42.50451 -79.25242 13010 ft 374 kts 46°
2026-05-05 18:14 42.52152 -79.22582 12233 ft 370 kts 47°
2026-05-05 18:14 42.53821 -79.19969 11601 ft 361 kts 47°
2026-05-05 18:14 42.55450 -79.17421 10963 ft 352 kts 47°
2026-05-05 18:14 42.57041 -79.14934 10290 ft 347 kts 47°
2026-05-05 18:15 42.58599 -79.12502 9610 ft 342 kts 48°
2026-05-05 18:15 42.60156 -79.10068 9122 ft 341 kts 48°
2026-05-05 18:15 42.61699 -79.07650 8971 ft 332 kts 48°
2026-05-05 18:15 42.63194 -79.05309 8703 ft 326 kts 47°
2026-05-05 18:16 42.64668 -79.03003 8540 ft 324 kts 47°
2026-05-05 18:16 42.66140 -79.00700 8314 ft 322 kts 47°
2026-05-05 18:16 42.67604 -78.98408 8077 ft 320 kts 47°
2026-05-05 18:16 42.69065 -78.96116 7840 ft 319 kts 47°
2026-05-05 18:17 42.70520 -78.93831 7613 ft 320 kts 47°
2026-05-05 18:17 42.71963 -78.91561 7382 ft 319 kts 47°
2026-05-05 18:17 42.73421 -78.89264 7138 ft 319 kts 48°
2026-05-05 18:17 42.74859 -78.86994 6916 ft 318 kts 48°
2026-05-05 18:18 42.76307 -78.84704 6681 ft 316 kts 48°
2026-05-05 18:18 42.77744 -78.82432 6454 ft 316 kts 48°
2026-05-05 18:18 42.79159 -78.80194 6230 ft 315 kts 47°
2026-05-05 18:18 42.80583 -78.77936 5988 ft 311 kts 47°
2026-05-05 18:19 42.81941 -78.75777 5839 ft 287 kts 47°
2026-05-05 18:19 42.83200 -78.73776 5609 ft 270 kts 47°
2026-05-05 18:19 42.84416 -78.71842 5418 ft 268 kts 47°
2026-05-05 18:19 42.85612 -78.69941 5311 ft 267 kts 47°
2026-05-05 18:20 42.86820 -78.68025 5198 ft 265 kts 47°
2026-05-05 18:20 42.88013 -78.66135 5066 ft 259 kts 46°
2026-05-05 18:20 42.89218 -78.64336 4944 ft 254 kts 39°
2026-05-05 18:20 42.90512 -78.62641 4568 ft 261 kts 39°
2026-05-05 18:21 42.91804 -78.60945 4219 ft 258 kts 39°
2026-05-05 18:21 42.93123 -78.59342 3895 ft 246 kts 26°
2026-05-05 18:21 42.94610 -78.58495 3634 ft 218 kts
2026-05-05 18:21 42.96031 -78.58437 3337 ft 190 kts 339°
2026-05-05 18:22 42.97208 -78.58925 3123 ft 171 kts 323°
2026-05-05 18:22 42.98171 -78.59772 2913 ft 159 kts 309°
2026-05-05 18:22 42.98885 -78.60823 2737 ft 138 kts 296°
2026-05-05 18:22 42.99338 -78.61902 2565 ft 125 kts 284°
2026-05-05 18:23 42.99570 -78.63009 2412 ft 119 kts 273°
2026-05-05 18:23 42.99595 -78.64103 2250 ft 115 kts 262°
2026-05-05 18:23 42.99430 -78.65160 2097 ft 114 kts 251°
2026-05-05 18:23 42.99083 -78.66157 1943 ft 118 kts 240°
2026-05-05 18:24 42.98550 -78.67041 1794 ft 121 kts 228°
2026-05-05 18:24 42.97950 -78.67823 1636 ft 118 kts 229°
2026-05-05 18:24 42.97355 -78.68603 1473 ft 121 kts 228°
2026-05-05 18:24 42.96759 -78.69384 1318 ft 120 kts 227°
2026-05-05 18:25 42.96154 -78.70196 1143 ft 123 kts 228°
2026-05-05 18:25 42.95744 -78.70733 1011 ft 122 kts 227°
2026-05-05 18:25 42.94920 -78.71813 824 ft 121 kts 229°
2026-05-05 18:25 42.94343 -78.72575 728 ft 101 kts 225°
2026-05-05 18:26 42.93971 -78.73061 725 ft 49 kts 221°
2026-05-05 18:26 42.93836 -78.73248 728 ft 16 kts 252°
2026-05-05 18:26 42.93897 -78.73291 724 ft 11 kts
2026-05-05 18:26 42.93972 -78.73287 725 ft 11 kts
2026-05-05 18:27 42.94045 -78.73289 723 ft 10 kts 355°
2026-05-05 18:27 42.94110 -78.73316 723 ft 10 kts 328°
2026-05-05 18:27 42.94158 -78.73390 724 ft 11 kts 307°
2026-05-05 18:27 42.94207 -78.73480 723 ft 12 kts 306°
2026-05-05 18:28 42.94367 -78.73496 720 ft 12 kts 360°
2026-05-05 18:28 42.94441 -78.73496 721 ft 11 kts
2026-05-05 18:28 42.94536 -78.73452 723 ft 10 kts 48°
2026-05-05 18:29 42.94608 -78.73397 722 ft 14 kts 360°
2026-05-05 18:29 42.94666 -78.73476 723 ft 12 kts 326°
2026-05-05 18:29 42.94716 -78.73457 723 ft 0 kts 27°